Weather History for KPKD - July, 2012

Change the Weather History Date:

Thursday, July 12, 2012

  Actual Average Record
Temperature  
Mean Temperature 72 °F -  
Max Temperature 82 °F 81 °F 95 °F (1969)
Min Temperature 64 °F 57 °F 39 °F (1975)
Cooling Degree Days 8    
Growing Degree Days 22 (Base 50)    
Moisture  
Dew Point 62 °F    
Average Humidity 69    
Maximum Humidity 87    
Minimum Humidity 54    
Precipitation  
Precipitation 0.06 in - - ()
Sea Level Pressure  
Sea Level Pressure 29.93 in    
Wind  
Wind Speed 10 mph (South)    
Max Wind Speed 18 mph    
Max Gust Speed 28 mph    
Visibility 10 miles    
Events Rain    
Averages and records for this station are not official NWS values.
T = Trace of Precipitation, MM = Missing Value Source: NWS Daily Summary

Daily Weather History Graph

Daily Weather History Graph

Search for Another Location

Airport or City:

Trip Planner

Search our weather history database for the weather conditions in past years. The results will help you decide how hot, cold, wet, or windy it might be!

Date:

Astronomy

Jul. 12, 2012 Rise Set
Actual Time 5:38 AM CDT 9:12 PM CDT
Civil Twilight 5:00 AM CDT 9:51 PM CDT
Nautical Twilight 4:09 AM CDT 10:41 PM CDT
Astronomical Twilight 3:00 AM CDT 11:50 PM CDT
Moon 12:51 AM CDT (7/12) 3:40 PM CDT (7/12)
Length of Visible Light 16h 50m
Length of Day
15h 34m
Waning Crescent, 35% of the Moon is Illuminated
Jul 12
Waning Crescent
Jul 18
New
Jul 26
First Quarter
Aug 1
Full
Aug 9
Last Quarter

Hourly Weather History & Observations

Time (CDT) Temp. Heat Index Dew Point Humidity Pressure Visibility Wind Dir Wind Speed Gust Speed Precip Events Conditions
12:53 AM 68.0 °F - 57.9 °F 70% 29.98 in 10.0 mi SE 10.4 mph - N/A   Clear
1:53 AM 64.9 °F - 57.9 °F 78% 29.97 in 10.0 mi SSE 8.1 mph - N/A   Clear
2:53 AM 66.0 °F - 57.9 °F 75% 29.98 in 10.0 mi South 8.1 mph - N/A   Clear
3:53 AM 64.9 °F - 57.9 °F 78% 29.96 in 10.0 mi South 6.9 mph - N/A   Clear
4:53 AM 64.9 °F - 57.9 °F 78% 29.98 in 10.0 mi South 6.9 mph - N/A   Mostly Cloudy
5:53 AM 66.0 °F - 57.9 °F 75% 29.96 in 10.0 mi SSE 8.1 mph - N/A   Clear
6:53 AM 66.9 °F - 57.9 °F 73% 29.95 in 10.0 mi SSE 11.5 mph - N/A   Clear
7:53 AM 68.0 °F - 59.0 °F 73% 29.94 in 10.0 mi SSE 11.5 mph - N/A   Clear
8:53 AM 69.1 °F - 59.0 °F 70% 29.94 in 10.0 mi SSE 11.5 mph - N/A   Clear
9:53 AM 75.0 °F - 61.0 °F 62% 29.93 in 10.0 mi SSE 9.2 mph - N/A   Clear
10:53 AM 73.9 °F - 62.1 °F 66% 29.94 in 10.0 mi South 6.9 mph - N/A   Scattered Clouds
11:53 AM 78.1 °F - 64.0 °F 62% 29.95 in 10.0 mi South 11.5 mph 16.1 mph N/A   Clear
12:53 PM 80.1 °F 81.7 °F 64.0 °F 58% 29.95 in 10.0 mi South 12.7 mph - N/A   Scattered Clouds
1:53 PM 80.1 °F 81.7 °F 64.0 °F 58% 29.94 in 10.0 mi South 13.8 mph - N/A   Mostly Cloudy
2:53 PM 80.1 °F 81.7 °F 64.0 °F 58% 29.93 in 10.0 mi South 13.8 mph - N/A   Mostly Cloudy
3:53 PM 81.0 °F 82.2 °F 63.0 °F 54% 29.91 in 10.0 mi South 18.4 mph 27.6 mph N/A   Clear
4:53 PM 79.0 °F - 64.0 °F 60% 29.93 in 10.0 mi South 10.4 mph - N/A   Clear
5:53 PM 80.1 °F 81.9 °F 64.9 °F 60% 29.91 in 10.0 mi South 15.0 mph 20.7 mph N/A   Clear
6:53 PM 80.1 °F 81.9 °F 64.9 °F 60% 29.89 in 10.0 mi South 13.8 mph 21.9 mph N/A   Clear
7:53 PM 78.1 °F - 64.9 °F 64% 29.89 in 10.0 mi South 9.2 mph - N/A   Clear
8:53 PM 75.0 °F - 66.0 °F 73% 29.88 in 10.0 mi South 9.2 mph - N/A   Clear
9:53 PM 73.9 °F - 66.0 °F 76% 29.89 in 10.0 mi South 9.2 mph - N/A   Clear
10:53 PM 71.1 °F - 66.0 °F 84% 29.89 in 10.0 mi South 4.6 mph - N/A   Partly Cloudy
11:53 PM 71.1 °F - 66.9 °F 87% 29.88 in 10.0 mi Calm Calm - 0.06 in Rain Light Rain